AirNav   Air Wisconsin Up To $57,000 Bonus
 
 453 users online  

83XS Ball Park Heliport
Houston, Texas, USA

GOING TO HOUSTON?


FAA INFORMATION EFFECTIVE 09 SEPTEMBER 2021

Location

FAA Identifier: 83XS
Lat/Long: 29-40-28.8350N 095-37-05.8040W
29-40.480583N 095-37.096733W
29.6746764,-95.6182789
(estimated)
Elevation: 90 ft. / 27 m (estimated)
Variation: 06E (1985)
From city: 14 miles SW of HOUSTON, TX
Time zone: UTC -5 (UTC -6 during Standard Time)
Zip code: 77083

Heliport Operations

Heliport use: Private use. Permission required prior to landing
Activation date: 05/1979
Control tower: no
ARTCC: HOUSTON CENTER
FSS: MONTGOMERY COUNTY FLIGHT SERVICE STATION
Attendance: 0700-1700
Wind indicator: no
Segmented circle: no

Heliport Communications

WX ASOS at SGR (4 nm SW): 118.125 (281-242-7605)
WX AWOS-3 at AXH (13 nm SE): 123.625 (281-431-6572)
WX AWOS-3 at TME (17 nm NW): 119.525 (281-945-5451)
WX ASOS at HOU (18 nm E): PHONE 713-847-1462

Nearby radio navigation aids

VOR radial/distance  VOR name  Freq  Var
IAHr215/22.1HUMBLE VORTAC116.6005E
ELAr081/36.4EAGLE LAKE VOR/DME116.4008E

Heliport Services

Runway Information

Helipad H1

Dimensions: 25 x 25 ft. / 8 x 8 m
LNDG & TKOFF 180' X 120'.
Surface: concrete
Latitude: 29-40.480667N
Longitude: 095-37.096667W
Elevation: 90.0 ft.
Traffic pattern: leftleft

Heliport Ownership and Management from official FAA records

Ownership: Privately-owned
Owner: PARK & SMYERS CONST INC
13301 OLD RICHMOND ROAD
HOUSTON, TX 77099
Phone 713-933-9870
Manager: PARK & SMYERS CONST INC
13301 OLD RICHMOND ROAD
HOUSTON, TX 77099
Phone 713-933-9870

Heliport Operational Statistics

Aircraft based on the field: 1
Helicopters: 1
    

Additional Remarks

A52-H1 PLINES 100' TO NORTH OF PAD.
FOR CD CTC HOUSTON ARTCC AT 281-230-5622.

Instrument Procedures

There are no published instrument procedures at 83XS.

Some nearby airports with instrument procedures:

KSGR - Sugar Land Regional Airport (4 nm SW)
KIWS - West Houston Airport (9 nm N)
KAXH - Houston Southwest Airport (13 nm SE)
KTME - Houston Executive Airport (17 nm NW)
KHOU - William P Hobby Airport (18 nm E)
 
Loc | Ops | Rwys | IFR | FBO | Links
Com | Nav | Svcs | Stats | Notes
Area around 83XS (Ball Park Heliport)
 
Road maps at: MapQuest Bing Google
 
Aerial photo
No photo
 
Sectional chart

 
Airport distance calculator
Flying to Ball Park Heliport? Find the distance to fly.

From to 83XS

Sunrise and sunset
Times for 20-Sep-2021
 Local
(UTC-5)
 Zulu
(UTC)
Morning civil twilight06:4711:47
Sunrise07:1112:11
Sunset19:2100:21
Evening civil twilight19:4500:45

Current date and time
Zulu (UTC)  20-Sep-2021 05:46:30
Local (UTC-5)  20-Sep-2021 00:46:30
 
METAR
KSGR 
4nm SW 
200453Z AUTO 17005KT 10SM CLR 26/23 A2989 RMK AO2 SLP120 T02610233
KAXH 
13nm SE 
200535Z AUTO 00000KT 10SM CLR 25/24 A2990 RMK AO2 T02460238
KTME 
17nm NW 
200535Z AUTO 17005KT 8SM CLR 26/25 A2990 RMK AO2
KHOU 
18nm E 
200453Z 17004KT 10SM CLR 27/23 A2988 RMK AO2 SLP123 T02670233
TAF
KSGR 
4nm SW 
191720Z 1918/2018 18005KT P6SM VCSH BKN040 FM200000 16006KT P6SM FEW025 SCT250 TEMPO 2009/2013 4SM BR SCT005 FM201500 22007KT P6SM SCT025 SCT040
KHOU 
18nm E 
192035Z 1921/2018 18006KT P6SM VCSH SCT035 BKN080 BKN150 FM192300 16006KT P6SM FEW025 SCT250 FM201500 22007KT P6SM SCT025 SCT040
NOTAMs
Click for the latest NOTAMs
NOTAMs are issued by the DoD/FAA and will open in a separate window not controlled by AirNav.

 

 
 

Would you like to see your business listed on this page?

 If your business provides an interesting product or service to pilots, flight crews, aircraft, or users of the Ball Park Heliport, you should consider listing it here.  To start the listing process, click on the button below
 
Add a business
 

Other Pages about Ball Park Heliport

Update a link
 
Copyright © AirNav, LLC. All rights reserved. Privacy Policy  Contact